Temperature
20 19 18 18 17 17 19 21 23 24 26 26 26 25 23 22 22 22 22 22 21 21 20 20 20 20 20 20 21 21 21 21 20 20 20 20 20 19 19 19 19 19 19 19 19 19 18 18 18
20 19 18 18 17 20 22 23 24 26 26 26 26 24 22 21 22 22 22 22 21 21 20 20 20 20 20 20 20 20 20 20 20 20 20 20 19 19 19 19 19 19 19 19 18 18 18 18 18
20 19 19 16 18 19 22 24 25 26 27 26 25 24 23 22 22 23 23 22 21 21 20 20 20 20 20 20 20 20 20 20 20 20 19 19 19 19 19 19 19 18 18 18 18 18 18 18 18
19 19 18 17 19 20 22 24 25 25 26 26 25 23 22 21 22 23 22 22 21 21 20 20 20 20 20 20 20 20 20 20 19 19 19 19 19 19 18 18 18 18 18 18 18 18 18 18 18
19 19 17 17 19 21 23 25 25 25 25 25 24 22 20 21 22 23 22 22 21 21 20 20 20 20 20 20 20 20 20 20 19 19 19 19 19 18 18 18 18 18 18 18 18 18 18 18 18
19 18 18 19 21 23 24 25 25 24 24 24 23 21 20 20 22 22 22 22 21 21 20 20 20 20 20 20 20 20 20 20 19 19 19 19 19 18 18 18 18 18 18 18 18 17 18 18 18
19 17 19 20 21 23 25 25 24 23 23 23 22 20 20 20 21 22 22 21 21 21 21 20 20 20 20 20 20 20 20 20 20 20 19 19 19 19 18 18 18 18 18 18 17 17 18 18 18
20 17 20 20 22 24 24 25 24 23 23 23 22 20 20 20 21 21 21 21 20 20 21 20 20 20 20 20 20 20 20 20 20 20 20 19 19 19 18 18 18 18 18 18 17 17 18 18 18
21 17 18 20 23 24 24 24 24 23 22 22 21 21 21 20 21 21 21 20 20 20 20 20 20 20 20 20 20 20 19 19 19 19 19 19 19 19 18 18 18 18 18 18 18 17 17 18 18
20 17 19 21 23 24 24 23 23 22 21 20 20 21 21 20 20 20 21 20 20 20 20 20 20 20 20 19 19 19 19 19 19 19 19 18 18 18 18 18 18 18 18 18 17 17 17 17 17
20 19 20 22 24 24 23 21 21 21 20 20 19 19 19 19 20 20 20 20 20 19 19 19 19 19 19 19 18 18 18 18 18 18 18 18 18 18 18 18 17 17 17 17 17 17 17 17 17
20 20 22 23 24 23 22 21 19 19 19 20 20 19 19 19 19 20 20 19 19 19 19 19 19 19 19 18 18 18 18 18 18 18 18 17 17 17 17 17 17 17 17 17 17 17 17 17 17
21 21 23 22 22 21 20 19 19 18 18 19 19 19 19 19 19 19 19 19 19 19 19 19 19 18 18 18 18 17 17 17 17 17 17 17 17 17 17 17 17 17 17 16 16 16 16 16 16
23 22 22 21 21 20 19 18 18 17 18 18 19 19 19 19 19 19 19 19 19 18 18 18 18 18 18 18 18 17 17 17 17 17 17 17 17 16 16 16 16 16 16 16 16 16 16 16 16
23 22 21 21 20 20 19 18 18 17 18 18 18 18 18 18 18 18 18 18 18 18 18 18 18 18 18 18 18 18 17 17 17 17 16 16 16 16 16 16 16 16 16 16 16 16 16 16 16
22 21 21 21 20 20 19 18 18 17 18 17 17 17 17 17 17 17 18 18 18 18 18 18 18 18 18 18 18 18 17 17 17 17 16 16 16 16 16 15 15 15 15 15 16 16 16 16 16
21 21 21 21 20 20 19 18 18 17 17 17 17 17 17 17 17 17 18 18 18 18 18 18 18 18 18 18 18 17 17 17 16 16 16 16 15 15 15 15 15 15 15 15 15 15 15 15 15
21 21 21 21 20 19 18 17 17 17 17 17 17 17 17 17 18 18 18 18 18 18 18 18 18 18 18 17 17 17 16 16 16 15 15 15 14 14 14 15 15 14 15 15 15 15 15 15 15
22 21 21 20 20 18 17 17 17 17 17 16 16 17 17 18 18 18 18 18 18 18 18 18 18 18 17 17 16 16 16 15 15 14 14 14 14 14 14 14 14 14 14 14 14 14 14 14 14
22 21 21 20 20 18 17 17 17 17 17 16 17 17 17 17 18 18 18 18 18 18 18 18 17 17 17 16 16 15 15 14 14 13 13 13 13 13 13 13 13 13 14 14 14 14 14 14 14
22 21 20 19 18 18 18 18 17 17 17 17 17 17 18 18 18 18 18 18 18 18 18 17 17 17 16 16 15 15 14 14 13 13 12 12 12 12 12 12 12 13 13 13 13 13 13 13 14
22 21 21 20 18 16 17 17 17 16 16 17 17 18 18 19 19 19 19 19 18 18 18 17 17 16 16 15 15 14 14 13 12 12 12 12 11 11 11 11 12 12 12 13 13 13 13 13 13
21 20 19 18 17 16 16 17 16 16 17 17 17 18 19 19 19 19 19 19 19 18 18 17 17 16 16 15 14 14 13 12 12 12 11 11 11 11 11 11 11 11 11 12 12 12 12 12 13
20 19 17 16 16 17 16 16 17 16 17 17 18 19 19 19 19 19 19 19 19 18 18 17 17 16 15 15 14 13 13 12 12 11 11 11 11 11 10 10 10 10 11 11 11 12 12 12 12
19 18 17 18 16 17 16 16 16 17 17 17 18 19 20 20 20 19 19 19 19 19 18 18 17 16 15 14 14 13 12 12 11 11 11 10 10 10 10 10 10 10 10 10 11 11 11 11 12
20 19 18 19 18 17 16 16 17 18 18 19 19 19 20 20 20 20 20 19 19 19 18 17 17 16 15 14 13 12 12 11 11 11 10 10 10 10 10 10 9 9 9 9 10 10 10 11 11
20 18 17 16 16 17 17 17 17 19 18 18 19 19 20 20 20 20 20 19 19 18 18 17 16 15 14 13 13 12 12 11 11 11 10 10 10 10 9 9 9 9 9 9 9 9 9 10 10
21 16 15 16 17 18 18 17 17 19 19 18 18 19 20 20 20 20 20 19 19 18 17 16 16 15 14 13 13 12 12 11 11 11 10 10 10 10 9 9 9 9 9 9 8 8 8 9 9
21 19 15 14 15 16 17 17 17 18 18 18 18 20 20 20 20 20 20 19 18 18 17 16 15 14 13 13 12 12 11 11 11 10 10 10 10 9 9 9 9 9 9 9 8 8 8 8 8
22 21 16 18 17 15 16 17 18 17 17 18 19 20 21 21 20 20 19 19 18 17 16 15 15 14 13 13 12 12 11 11 11 10 10 10 9 9 9 9 9 9 9 8 8 8 8 8 8
Wind_Speed
17 11 3 3 4 3 5 6 4 5 3 3 5 9 9 6 3 4 3 10 13 13 13 16 16 16 16 17 18 18 18 18 18 17 17 16 15 15 14 13 13 12 12 11 10 9 9 8 9
11 5 4 4 3 3 5 4 3 2 1 2 5 6 8 6 4 7 6 10 15 13 13 14 16 15 15 15 16 17 17 17 16 16 16 15 15 14 13 12 12 11 11 10 10 9 9 8 8
8 3 4 4 1 3 6 4 3 3 2 3 4 5 5 4 5 5 8 15 14 11 12 14 16 15 14 14 14 14 15 15 15 14 14 13 13 12 11 11 10 10 10 10 9 9 9 8 8
5 3 4 3 4 6 6 9 6 3 3 5 4 5 5 5 3 7 15 17 15 10 12 14 15 14 14 13 13 13 13 13 13 12 12 11 11 10 10 9 9 8 8 8 9 9 9 8 8
3 4 4 3 6 6 6 9 5 0 2 5 4 5 5 6 11 16 16 17 16 11 10 13 14 13 13 13 12 12 11 11 11 11 11 10 10 10 10 10 9 8 8 8 8 9 9 9 8
4 4 3 3 7 7 5 6 4 5 4 5 5 4 4 5 10 13 14 13 13 11 9 11 13 12 11 11 11 11 11 11 10 10 10 10 10 10 10 10 10 9 9 9 8 9 9 9 9
4 4 2 4 5 6 7 7 6 5 5 5 3 5 3 5 7 10 11 11 10 9 7 7 9 10 10 10 10 10 10 10 10 10 10 10 10 10 9 9 9 10 10 10 10 10 10 11 10
4 4 1 3 4 5 6 5 4 5 3 3 3 6 5 6 10 11 11 10 9 7 6 5 6 6 6 7 8 9 9 9 9 10 10 10 10 10 10 9 10 10 10 11 11 11 11 11 11
4 4 2 4 3 3 4 5 4 4 5 5 5 3 8 15 14 12 10 8 7 6 4 4 3 3 3 4 6 7 7 8 9 9 10 10 8 8 8 9 10 11 12 12 12 12 13 12 12
5 3 7 6 5 3 2 3 4 4 6 6 7 10 15 15 13 11 10 8 6 4 3 2 2 1 2 3 3 3 4 5 7 7 8 7 7 7 8 9 11 12 12 12 13 14 13 12 11
7 7 6 7 7 4 1 2 4 4 5 2 6 12 14 13 10 9 8 6 5 3 2 2 1 1 0 1 2 2 3 4 6 7 8 8 7 7 7 7 9 9 10 9 10 11 11 10 9
6 7 6 6 3 2 3 4 5 6 5 6 8 11 12 11 9 8 8 6 5 4 4 5 3 3 2 2 2 3 3 4 5 7 8 7 5 4 5 5 5 5 6 6 6 6 9 10 11
6 5 3 3 5 6 9 8 8 7 9 11 12 12 11 9 8 7 7 7 6 6 6 5 5 4 3 3 2 2 2 3 5 5 5 5 4 4 3 3 4 4 5 5 5 5 6 7 8
3 1 2 4 6 5 11 7 6 6 8 11 11 10 8 8 7 7 8 8 7 7 6 6 6 5 4 3 3 3 4 5 6 7 7 6 4 3 2 2 2 3 4 5 5 5 5 5 5
1 1 4 4 4 4 8 7 4 5 8 10 9 9 8 7 6 6 6 7 7 6 6 5 5 5 5 4 4 4 5 6 6 7 9 8 6 4 2 2 2 3 4 4 4 4 4 5 6
2 3 2 2 2 3 6 5 4 5 8 9 8 8 7 5 5 5 6 6 6 6 5 4 4 5 4 4 4 4 5 6 6 7 9 9 8 6 3 2 3 3 3 2 2 3 4 5 6
4 1 2 2 1 2 5 5 5 4 6 7 7 8 7 6 4 5 6 6 6 6 5 4 3 4 4 4 4 4 5 6 6 7 8 9 9 8 4 2 3 3 2 2 3 2 3 5 6
3 2 3 3 1 3 4 4 5 5 5 6 6 7 7 7 7 6 7 7 6 5 4 4 3 2 2 2 3 3 4 4 5 6 7 9 9 8 5 3 3 3 2 2 2 3 3 5 6
5 4 4 1 1 3 4 5 5 5 4 5 5 6 7 7 6 6 7 7 6 5 5 4 3 2 1 2 2 2 2 3 3 4 7 9 9 8 5 3 4 3 2 3 3 3 4 4 3
5 4 3 3 3 3 2 1 3 4 4 5 6 7 8 7 6 7 8 7 7 7 6 5 4 3 2 1 1 1 0 2 2 3 6 8 9 8 6 4 4 3 3 3 2 2 2 2 2
3 4 4 5 4 5 2 2 1 1 2 4 5 6 7 8 9 9 9 9 7 8 8 6 6 4 2 2 2 2 3 3 4 4 4 6 8 8 6 5 4 4 2 3 3 2 2 3 2
2 1 5 6 5 4 5 2 4 2 3 4 5 6 7 7 7 7 8 9 9 9 7 6 5 4 3 2 1 1 1 2 3 3 4 6 7 7 6 5 4 4 3 3 3 1 1 2 2
3 6 8 6 6 4 5 2 7 2 3 5 6 7 7 7 8 8 9 9 8 7 6 6 5 4 3 2 2 2 3 3 3 3 5 5 5 6 6 5 4 4 3 3 3 2 1 1 2
7 7 8 7 5 3 2 1 6 4 6 5 5 6 7 7 7 7 6 6 5 5 5 5 5 4 3 3 3 3 5 5 5 5 5 5 4 4 5 4 3 3 3 3 3 2 2 2 2
6 6 5 5 4 3 2 2 8 7 7 7 8 8 7 7 7 6 6 6 6 6 5 5 5 5 4 3 4 5 6 5 6 6 5 5 4 4 5 4 3 3 3 4 3 2 2 2 2
4 7 6 4 3 3 2 4 7 7 7 7 7 7 6 6 6 7 7 7 6 6 6 5 5 5 4 5 5 5 5 4 5 5 5 5 4 5 6 5 5 5 4 4 3 2 3 2 3
6 3 6 7 3 2 4 6 8 4 5 5 6 6 7 6 6 7 7 7 6 6 5 6 6 5 6 6 6 6 6 6 6 6 5 5 5 5 6 6 6 5 5 5 4 3 4 3 3
5 9 6 6 5 1 5 5 5 8 8 6 6 7 7 5 5 6 6 5 4 4 3 3 5 6 6 6 6 6 6 6 6 6 7 7 6 6 7 7 7 6 6 5 4 4 4 4 4
3 5 6 5 5 6 3 7 8 10 10 9 9 7 7 8 8 7 5 3 2 2 3 4 5 5 6 7 7 7 7 6 6 6 7 7 7 7 7 8 8 8 8 6 5 6 6 6 6
1 4 7 5 3 5 4 8 6 8 9 8 9 7 7 8 7 4 3 3 3 4 5 6 6 7 8 7 7 7 7 6 6 7 8 7 8 8 8 8 8 9 9 7 7 8 7 7 8
Wind_Direction
141 134 102 65 43 24 280 256 244 290 334 8 64 87 89 77 95 131 113 129 132 140 148 149 146 142 138 136 134 132 133 133 134 136 137 141 145 149 154 158 162 165 166 165 163 158 150 142 139
136 123 68 64 62 357 297 258 270 305 137 98 63 80 79 74 85 114 124 135 137 138 141 147 148 145 142 140 138 138 138 139 141 142 144 147 151 155 159 163 167 169 170 170 169 165 159 151 148
137 93 93 74 82 236 278 282 296 334 27 28 52 58 76 103 130 131 136 135 131 130 136 150 150 149 148 147 145 144 145 146 147 148 150 153 156 160 165 169 173 176 177 177 177 173 167 161 159
124 68 66 65 264 243 250 275 288 311 4 34 68 61 58 38 123 128 132 134 130 125 135 151 152 153 153 153 154 153 153 154 155 156 158 161 165 169 173 178 184 188 190 191 188 183 177 172 170
81 88 56 338 271 259 260 280 270 257 42 31 50 73 43 21 96 121 131 136 135 130 134 149 152 155 157 159 160 161 162 162 164 165 169 174 179 184 187 190 195 201 205 206 203 195 189 185 182
73 75 73 302 289 289 308 339 37 52 54 45 50 75 51 80 108 124 129 131 134 133 129 144 152 156 159 164 166 169 172 173 175 179 183 189 195 199 201 203 206 211 218 219 220 209 199 195 192
115 113 180 259 289 314 343 358 34 34 43 34 46 87 87 104 110 115 117 121 125 125 119 125 147 158 164 171 176 178 181 184 187 191 196 202 209 213 214 217 220 224 228 229 228 222 213 206 201
137 111 291 275 276 303 330 3 30 37 42 33 55 119 147 137 117 107 106 109 118 118 115 117 129 145 161 178 187 191 195 197 201 205 210 215 221 226 228 229 232 237 238 238 236 229 222 216 212
110 77 258 245 239 285 343 16 25 51 56 42 43 91 131 127 121 116 114 114 125 134 123 117 120 132 162 190 207 209 216 218 219 223 226 228 231 238 244 245 244 245 246 246 245 239 231 223 219
116 166 233 229 220 238 344 17 16 56 48 50 64 79 114 124 128 130 134 138 144 154 146 107 118 135 202 226 236 243 258 255 245 242 246 250 243 241 246 251 254 254 254 253 250 247 240 231 224
172 204 239 253 239 232 206 54 23 87 53 58 119 122 126 126 126 129 131 135 141 140 120 87 62 53 169 317 329 304 293 288 273 261 254 256 254 252 255 255 259 263 265 262 256 251 240 230 223
197 244 241 275 267 184 152 117 65 58 76 79 97 116 121 125 126 127 124 121 116 108 82 68 58 45 26 39 346 330 314 299 287 278 270 256 254 253 252 251 255 256 260 258 253 245 238 230 226
223 267 286 332 43 87 90 85 93 75 85 88 93 100 111 113 108 102 101 97 93 87 74 62 60 69 55 52 44 31 6 343 331 327 308 270 249 248 242 249 252 254 257 255 251 247 243 238 233
230 216 22 32 62 72 93 79 83 93 98 95 94 93 97 103 105 103 101 98 94 92 84 76 76 82 86 83 73 55 41 27 20 8 350 331 291 270 256 247 249 256 254 253 252 252 249 246 243
252 77 41 35 73 123 96 61 81 125 114 106 105 106 98 93 102 107 112 115 119 118 116 113 115 106 105 97 83 75 60 50 36 19 9 360 342 312 285 268 265 265 264 260 260 262 258 258 251
30 61 48 328 90 135 109 139 160 141 127 126 128 125 119 112 123 130 137 139 146 144 142 146 127 118 114 107 94 78 64 56 41 30 22 14 7 356 336 307 295 297 288 272 266 263 263 260 255
33 65 233 257 27 129 124 158 171 159 141 144 146 143 138 137 154 163 168 168 172 169 164 167 151 140 123 102 82 68 57 49 39 33 25 17 14 10 1 331 318 322 308 286 278 267 253 265 263
248 236 232 228 337 86 112 145 160 180 172 164 163 158 159 171 190 188 190 189 189 189 185 181 171 154 109 76 60 44 38 30 27 24 17 14 10 10 11 355 342 342 324 310 298 280 263 259 265
211 213 229 230 66 85 119 146 177 181 184 176 183 181 184 196 204 201 202 199 197 202 202 203 192 195 136 69 57 39 3 345 352 356 3 5 6 7 14 6 353 345 309 291 295 284 282 273 255
210 214 193 86 52 84 103 149 185 188 195 192 195 197 198 200 204 211 212 210 209 211 213 213 211 208 185 135 120 126 341 315 308 322 343 358 2 2 11 7 351 337 305 296 295 274 285 283 244
215 197 176 144 97 54 59 3 245 208 206 210 211 210 205 203 205 210 214 218 218 220 217 214 213 211 196 140 93 47 20 354 342 337 335 337 343 349 356 357 353 346 325 291 284 262 247 277 283
288 297 128 121 100 30 34 332 295 284 276 225 220 217 218 220 216 215 218 222 222 224 216 213 211 210 203 159 155 189 264 283 279 290 299 312 326 335 342 350 358 358 352 321 300 277 246 257 286
91 70 84 86 92 53 26 23 298 346 280 251 234 229 231 230 225 225 224 225 222 214 205 204 202 210 206 191 197 220 254 257 281 293 300 308 315 322 330 337 350 353 349 337 324 314 273 228 253
120 71 55 51 62 33 338 31 293 266 238 257 242 233 233 233 232 231 228 219 217 202 193 188 192 214 214 217 223 227 253 272 289 295 299 303 308 311 319 326 334 330 328 329 327 312 288 254 247
80 85 34 1 12 274 268 251 257 258 240 233 241 240 234 233 227 221 212 206 208 200 192 183 190 217 226 234 245 242 248 255 261 270 275 286 294 296 301 311 307 304 304 307 316 320 303 273 258
150 132 158 201 222 279 309 258 258 256 255 243 241 240 237 234 222 215 209 205 209 203 188 184 197 222 235 241 252 253 250 246 250 254 257 264 265 273 281 288 288 286 292 301 307 299 295 281 271
137 142 150 123 108 34 296 292 302 260 255 242 237 234 238 232 214 210 209 208 207 201 197 199 206 227 239 242 248 255 254 247 253 261 260 261 262 271 275 282 286 285 283 282 284 277 284 289 278
123 139 102 107 129 259 301 283 250 253 242 231 225 229 236 217 207 211 213 214 214 213 216 215 218 229 241 245 246 250 252 251 255 263 268 267 269 270 279 282 283 283 278 269 257 259 265 269 272
119 95 100 104 142 152 235 268 227 222 221 218 226 225 215 207 211 219 226 233 233 242 241 242 242 246 254 253 252 255 260 259 260 261 265 269 274 276 276 277 280 282 281 271 253 250 250 250 258
207 159 149 148 195 170 182 264 261 235 234 217 224 221 210 212 222 233 244 255 256 257 259 256 255 253 254 254 253 254 260 265 265 265 268 269 273 276 276 278 278 278 278 271 265 266 261 246 248
Height
1522 1524 1527 1529 1531 1535 1532 1519 1509 1503 1499 1497 1496 1496 1500 1505 1509 1516 1513 1514 1517 1521 1524 1528 1531 1533 1536 1537 1539 1540 1542 1543 1544 1545 1547 1547 1548 1549 1550 1550 1551 1552 1553 1553 1554 1555 1556 1556 1556
1523 1525 1529 1530 1534 1538 1526 1510 1505 1501 1499 1499 1499 1500 1502 1506 1507 1510 1511 1515 1518 1522 1525 1529 1532 1535 1537 1539 1540 1542 1543 1544 1545 1546 1547 1548 1549 1550 1550 1551 1551 1552 1553 1554 1555 1555 1556 1557 1557
1525 1527 1530 1531 1536 1536 1523 1506 1502 1499 1500 1500 1502 1503 1505 1508 1510 1511 1513 1516 1519 1523 1527 1530 1533 1536 1538 1540 1541 1543 1544 1545 1547 1547 1548 1549 1550 1550 1551 1551 1552 1552 1553 1554 1555 1556 1556 1557 1558
1525 1528 1530 1534 1535 1525 1515 1504 1500 1499 1500 1501 1503 1506 1508 1512 1513 1514 1515 1517 1520 1524 1528 1531 1534 1537 1539 1541 1542 1544 1545 1546 1547 1548 1548 1549 1550 1550 1551 1551 1552 1552 1553 1554 1555 1556 1557 1557 1558
1525 1528 1532 1537 1531 1518 1508 1502 1499 1500 1502 1503 1505 1509 1512 1513 1514 1516 1517 1519 1521 1525 1529 1532 1535 1537 1540 1541 1543 1544 1545 1546 1547 1548 1548 1549 1549 1550 1550 1551 1551 1552 1553 1554 1555 1556 1557 1557 1558
1526 1528 1537 1539 1527 1513 1506 1502 1500 1502 1505 1506 1508 1511 1515 1516 1517 1518 1519 1521 1524 1527 1530 1533 1536 1538 1540 1542 1543 1544 1545 1546 1547 1548 1548 1548 1548 1549 1550 1550 1551 1551 1552 1553 1554 1555 1556 1557 1557
1527 1531 1535 1532 1526 1516 1508 1504 1504 1506 1507 1509 1511 1513 1517 1518 1519 1520 1521 1524 1526 1529 1531 1534 1536 1538 1540 1542 1543 1544 1545 1546 1547 1547 1547 1547 1548 1548 1548 1549 1550 1550 1551 1552 1553 1554 1555 1556 1557
1526 1530 1532 1531 1525 1517 1509 1507 1508 1508 1510 1511 1511 1514 1517 1519 1521 1522 1524 1526 1529 1531 1533 1535 1537 1539 1540 1542 1544 1545 1545 1546 1546 1546 1546 1546 1546 1547 1547 1548 1548 1549 1550 1550 1551 1552 1553 1554 1555
1525 1533 1536 1528 1521 1515 1510 1509 1510 1511 1511 1512 1512 1514 1516 1519 1522 1524 1526 1528 1530 1533 1534 1536 1538 1539 1541 1542 1543 1544 1545 1545 1545 1545 1545 1545 1545 1545 1545 1546 1546 1547 1548 1548 1549 1550 1551 1552 1553
1524 1534 1528 1518 1514 1512 1511 1511 1512 1513 1513 1515 1515 1516 1518 1520 1523 1525 1527 1529 1531 1533 1535 1536 1538 1540 1541 1542 1543 1543 1543 1544 1544 1544 1543 1543 1543 1543 1543 1544 1544 1545 1545 1546 1547 1547 1548 1549 1550
1520 1523 1516 1512 1510 1510 1511 1512 1513 1514 1517 1518 1517 1518 1520 1522 1525 1527 1529 1530 1532 1534 1536 1538 1539 1540 1541 1542 1542 1542 1542 1542 1543 1542 1542 1541 1541 1541 1541 1541 1542 1542 1542 1543 1543 1544 1545 1545 1546
1519 1514 1512 1509 1508 1508 1510 1512 1514 1516 1520 1520 1520 1521 1522 1525 1527 1528 1529 1532 1533 1535 1537 1538 1539 1540 1540 1541 1541 1541 1541 1541 1541 1541 1540 1540 1539 1539 1539 1539 1539 1539 1539 1539 1540 1540 1541 1542 1542
1515 1513 1511 1510 1507 1508 1510 1513 1516 1520 1521 1521 1522 1524 1525 1527 1528 1530 1531 1533 1534 1536 1537 1538 1539 1539 1539 1540 1541 1540 1540 1539 1539 1539 1538 1537 1537 1536 1536 1536 1536 1536 1535 1536 1536 1536 1536 1537 1537
1512 1511 1511 1510 1509 1511 1512 1516 1518 1523 1522 1523 1524 1525 1527 1528 1529 1530 1532 1533 1534 1535 1536 1538 1538 1539 1539 1540 1540 1539 1539 1539 1538 1537 1536 1535 1534 1533 1533 1532 1532 1532 1532 1532 1532 1532 1532 1532 1532
1511 1512 1512 1512 1511 1514 1514 1521 1522 1523 1523 1524 1526 1527 1528 1530 1531 1532 1533 1534 1535 1536 1537 1538 1538 1539 1540 1540 1539 1539 1539 1537 1536 1535 1533 1533 1531 1531 1530 1529 1529 1529 1529 1528 1528 1528 1527 1527 1527
1511 1516 1520 1514 1512 1514 1518 1527 1523 1523 1524 1525 1526 1527 1529 1531 1532 1533 1534 1535 1536 1536 1537 1538 1539 1539 1540 1539 1539 1538 1537 1536 1534 1533 1531 1530 1529 1528 1527 1526 1526 1526 1525 1525 1524 1524 1523 1523 1522
1518 1523 1521 1517 1513 1513 1517 1524 1523 1524 1524 1525 1526 1527 1529 1530 1532 1533 1535 1536 1536 1537 1537 1538 1539 1539 1540 1539 1539 1538 1536 1534 1532 1530 1528 1527 1526 1525 1524 1523 1523 1523 1522 1522 1521 1520 1519 1519 1518
1522 1521 1519 1519 1515 1515 1519 1522 1522 1524 1525 1525 1526 1527 1529 1530 1532 1533 1534 1535 1536 1537 1538 1538 1539 1539 1539 1539 1538 1536 1535 1533 1530 1528 1526 1524 1523 1522 1521 1521 1520 1520 1519 1519 1518 1517 1516 1515 1514
1511 1515 1518 1517 1515 1518 1522 1523 1523 1524 1525 1526 1526 1527 1528 1530 1531 1532 1534 1535 1536 1536 1537 1538 1538 1538 1538 1537 1536 1534 1533 1531 1528 1526 1523 1521 1520 1519 1518 1517 1517 1517 1516 1516 1515 1514 1513 1512 1511
1509 1515 1517 1518 1516 1520 1524 1524 1523 1524 1524 1524 1525 1527 1528 1529 1530 1531 1533 1534 1535 1535 1536 1537 1537 1537 1536 1535 1534 1532 1530 1528 1526 1523 1521 1519 1517 1515 1514 1514 1513 1513 1513 1513 1513 1511 1510 1509 1508
1509 1513 1515 1520 1521 1523 1524 1527 1525 1523 1524 1524 1525 1526 1527 1528 1529 1530 1531 1532 1533 1534 1535 1535 1535 1535 1534 1533 1531 1530 1528 1526 1524 1521 1519 1516 1514 1513 1511 1510 1510 1509 1509 1509 1509 1508 1507 1506 1505
1512 1506 1509 1516 1525 1536 1532 1540 1528 1525 1524 1523 1524 1524 1525 1526 1528 1529 1530 1531 1531 1532 1533 1533 1533 1533 1532 1531 1529 1527 1525 1523 1521 1518 1516 1514 1512 1510 1509 1507 1506 1505 1505 1505 1505 1505 1504 1504 1503
1510 1508 1512 1520 1529 1537 1537 1541 1535 1526 1525 1522 1521 1521 1522 1524 1525 1527 1528 1529 1530 1530 1531 1531 1531 1530 1529 1528 1526 1525 1523 1521 1518 1516 1514 1511 1509 1508 1506 1504 1503 1502 1501 1501 1501 1501 1501 1501 1500
1507 1513 1520 1528 1535 1547 1543 1546 1540 1529 1523 1519 1518 1518 1520 1522 1523 1524 1525 1526 1527 1528 1528 1528 1528 1527 1526 1525 1524 1522 1520 1518 1515 1513 1510 1508 1506 1504 1502 1500 1499 1498 1497 1497 1497 1497 1497 1497 1497
1510 1525 1543 1545 1553 1551 1542 1544 1538 1520 1516 1516 1515 1516 1517 1519 1520 1521 1523 1524 1524 1525 1525 1525 1525 1524 1523 1522 1521 1519 1517 1515 1512 1510 1507 1505 1502 1500 1498 1497 1495 1494 1493 1492 1492 1492 1492 1492 1492
1513 1522 1542 1550 1552 1550 1542 1543 1528 1514 1512 1512 1512 1513 1514 1516 1517 1518 1520 1521 1522 1522 1522 1522 1522 1521 1520 1519 1517 1516 1514 1511 1509 1507 1504 1501 1499 1497 1495 1493 1491 1490 1489 1488 1487 1487 1487 1487 1487
1514 1522 1525 1542 1547 1551 1545 1536 1521 1510 1510 1509 1510 1510 1511 1513 1514 1516 1518 1519 1519 1520 1520 1519 1519 1518 1517 1515 1514 1512 1510 1508 1506 1503 1501 1498 1496 1494 1492 1490 1488 1486 1485 1484 1482 1482 1482 1482 1482
1506 1518 1532 1542 1552 1553 1544 1538 1532 1514 1510 1508 1508 1508 1509 1511 1513 1514 1516 1517 1517 1517 1517 1517 1516 1515 1513 1512 1510 1509 1507 1504 1502 1500 1497 1495 1493 1490 1488 1486 1485 1483 1481 1480 1478 1477 1477 1476 1476
1510 1519 1531 1542 1542 1553 1554 1542 1512 1507 1504 1505 1505 1506 1508 1509 1511 1513 1514 1515 1515 1515 1515 1514 1513 1511 1510 1508 1507 1505 1503 1501 1498 1496 1494 1491 1489 1487 1484 1482 1480 1479 1477 1476 1474 1473 1472 1471 1470
1503 1509 1523 1533 1539 1545 1548 1537 1501 1501 1500 1501 1503 1504 1506 1508 1510 1512 1513 1513 1513 1513 1512 1511 1509 1508 1506 1504 1503 1501 1499 1497 1494 1492 1489 1487 1484 1482 1480 1477 1475 1473 1472 1470 1469 1468 1467 1465 1465